Location: Fort Worth, Tx
(32.7431°N, 97.3695°W)
Time: 09:13:33
(UTC-04:00)

Courier 1B - Pass Details

Date: 01 March 2024
Orbit: 962 x 1208 km, 28.3° (Epoch: 24 April)

Event Time Altitude Azimuth Distance (km) Brightness Sun altitude
Rises 21:09:35 0° 215° (SW) 3,920 11.1 -22.3°
Reaches altitude 10° 21:13:09 10° 200° (SSW) 2,916 10.1 -23.0°
Enters shadow 21:17:54 21° 158° (SSE) 2,162 9.0 -24.0°
